Morristown, NJ

7:47 PM EDT on April 27, 2017 (GMT -0400)
Morristown Municipal

Weather History for KMMU - September, 2014

Change the Weather History Date:

Thursday, September 4, 2014

  Actual Average Record
Temperature  
Mean Temperature 71 °F -  
Max Temperature 87 °F 80 °F 96 °F (1993)
Min Temperature 55 °F 56 °F 40 °F (1946)
Cooling Degree Days 6    
Growing Degree Days 21 (Base 50)    
Moisture  
Dew Point 58 °F    
Average Humidity 75    
Maximum Humidity 100    
Minimum Humidity 33    
Precipitation  
Precipitation 0.00 in - - ()
Sea Level Pressure  
Sea Level Pressure 30.16 in    
Wind  
Wind Speed 1 mph (SSW)    
Max Wind Speed 13 mph    
Max Gust Speed -    
Visibility 7 miles    
Events Fog    
Averages and records for this station are not official NWS values.
T = Trace of Precipitation, MM = Missing Value Source: NWS Daily Summary

Daily Weather History Graph

Daily Weather History Graph

Search for Another Location

Airport or City:

Trip Planner

Search our weather history database for the weather conditions in past years. The results will help you decide how hot, cold, wet, or windy it might be!

Date:

Astronomy

Sep. 04, 2014 Rise Set
Actual Time 6:27 AM EDT 7:25 PM EDT
Civil Twilight 5:59 AM EDT 7:52 PM EDT
Nautical Twilight 5:26 AM EDT 8:26 PM EDT
Astronomical Twilight 4:51 AM EDT 9:00 PM EDT
Moon 4:01 PM EDT (9/4) 1:14 AM EDT (9/4)
Length of Visible Light 13h 53m
Length of Day
12h 57m
Waxing Gibbous, 74% of the Moon is Illuminated
Sep 4
Waxing Gibbous
Sep 8
Full
Sep 15
Last Quarter
Sep 24
New
Oct 1
First Quarter

Hourly Weather History & Observations

Time (EDT) Temp. Heat Index Dew Point Humidity Pressure Visibility Wind Dir Wind Speed Gust Speed Precip Events Conditions
12:15 AM 60.8 °F - 59.0 °F 94% 30.13 in 7.0 mi Calm Calm - N/A   Clear
12:35 AM 60.8 °F - 57.2 °F 88% 30.13 in 4.0 mi Calm Calm - N/A   Clear
12:55 AM 60.8 °F - 57.2 °F 88% 30.13 in 0.8 mi Calm Calm - N/A   Mist
1:15 AM 60.8 °F - 57.2 °F 88% 30.14 in 10.0 mi Calm Calm - N/A   Clear
1:35 AM 59.0 °F - 55.4 °F 88% 30.14 in 1.0 mi Calm Calm - N/A   Mist
1:55 AM 59.0 °F - 55.4 °F 88% 30.14 in 0.5 mi Calm Calm - N/A Fog Fog
2:15 AM 60.8 °F - 57.2 °F 88% 30.14 in 0.2 mi Calm Calm - N/A Fog Fog
2:35 AM 59.0 °F - 57.2 °F 94% 30.14 in 5.0 mi Calm Calm - N/A   Scattered Clouds
2:55 AM 57.2 °F - 55.4 °F 94% 30.15 in 7.0 mi Calm Calm - N/A   Clear
3:15 AM 57.2 °F - 53.6 °F 88% 30.15 in 0.5 mi Calm Calm - N/A Fog Fog
3:35 AM 59.0 °F - 55.4 °F 88% 30.15 in 0.5 mi Calm Calm - N/A Fog Fog
3:55 AM 57.2 °F - 55.4 °F 94% 30.15 in 4.0 mi Calm Calm - N/A   Clear
4:15 AM 57.2 °F - 53.6 °F 88% 30.15 in 0.5 mi Calm Calm - N/A Fog Fog
4:35 AM 57.2 °F - 53.6 °F 88% 30.15 in 10.0 mi Calm Calm - N/A   Clear
4:55 AM 57.2 °F - 53.6 °F 88% 30.16 in 0.5 mi Calm Calm - N/A Fog Fog
5:15 AM 57.2 °F - 53.6 °F 88% 30.16 in 0.2 mi Calm Calm - N/A Fog Fog
5:35 AM 57.2 °F - 53.6 °F 88% 30.17 in 0.8 mi Calm Calm - N/A   Mostly Cloudy
5:55 AM 57.2 °F - 53.6 °F 88% 30.17 in 10.0 mi Calm Calm - N/A   Clear
6:15 AM 55.4 °F - 53.6 °F 94% 30.18 in 7.0 mi Calm Calm - N/A   Clear
6:35 AM 57.2 °F - 53.6 °F 88% 30.19 in 10.0 mi Calm Calm - N/A   Scattered Clouds
6:45 AM 57.2 °F - 57.2 °F 100% 30.19 in 10.0 mi Calm Calm - N/A   Clear
7:45 AM 62.6 °F - 60.8 °F 94% 30.21 in 10.0 mi Calm Calm - N/A   Clear
8:45 AM 69.8 °F - 62.6 °F 78% 30.20 in 10.0 mi Calm Calm - N/A   Clear
9:45 AM 77.0 °F - 60.8 °F 57% 30.20 in 10.0 mi Calm Calm - N/A   Clear
10:45 AM 80.6 °F 81.5 °F 60.8 °F 51% 30.19 in 10.0 mi Calm Calm - N/A   Clear
11:45 AM 82.4 °F 82.5 °F 59.0 °F 45% 30.16 in 10.0 mi South 4.6 mph - N/A   Clear
12:45 PM 86.0 °F 84.9 °F 57.2 °F 37% 30.16 in 10.0 mi South 12.7 mph - N/A   Partly Cloudy
1:45 PM 86.0 °F 84.5 °F 55.4 °F 35% 30.16 in 10.0 mi WSW 4.6 mph - N/A   Mostly Cloudy
2:45 PM 87.8 °F 86.1 °F 55.4 °F 33% 30.15 in 10.0 mi West 8.1 mph - N/A   Mostly Cloudy
3:45 PM 86.0 °F 85.4 °F 59.0 °F 40% 30.14 in 10.0 mi SSW 10.4 mph - N/A   Mostly Cloudy
4:45 PM 86.0 °F 86.1 °F 60.8 °F 43% 30.13 in 10.0 mi South 6.9 mph - N/A   Scattered Clouds
5:45 PM 84.2 °F 85.0 °F 62.6 °F 48% 30.12 in 10.0 mi SE 8.1 mph - N/A   Partly Cloudy
6:45 PM 82.4 °F 83.9 °F 64.4 °F 54% 30.12 in 10.0 mi South 5.8 mph - N/A   Clear
8:45 PM 78.8 °F - 64.4 °F 61% 30.16 in 10.0 mi Calm Calm - N/A   Clear
9:45 PM 77.0 °F - 62.6 °F 61% 30.16 in 10.0 mi SW 5.8 mph - N/A   Clear
10:15 PM 75.2 °F - 62.6 °F 65% 30.15 in 10.0 mi Calm Calm - N/A   Clear
10:35 PM 73.4 °F - 62.6 °F 69% 30.16 in 10.0 mi Calm Calm - N/A   Clear
10:55 PM 69.8 °F - 60.8 °F 73% 30.16 in 10.0 mi Calm Calm - N/A   Clear
11:15 PM 68.0 °F - 60.8 °F 78% 30.16 in 10.0 mi Calm Calm - N/A   Clear
11:35 PM 68.0 °F - 62.6 °F 83% 30.16 in 10.0 mi Calm Calm - N/A   Clear
11:55 PM 68.0 °F - 62.6 °F 83% 30.15 in 10.0 mi Calm Calm - N/A   Clear